CQ0XBF-11 Chamusca PT current weather conditions

sailwx.info

Wind from 285

Air temperature 25.6° C
Dewpoint 10.9° C

Last reported at 2016-Sep-29 19:54 UTC.
Time now 2016-Sep-29 20:26 UTC

Location: N 39°21' W 008°28'.
View on Google Maps.

See reports from other nearby stations

  
Tides and Currents Weather Stations Pressure Air Temp Water Temp Dewpoint Dewpoint Depression Visibility Wind Speed Wind Dir Waves Ship Positions
date/time (UTC)wind fromknots sea level pressurealtimeterstation pressurevisibilityair tempwater tempwave heightnotes
2016-Sep-29 19:54 285 25.6
2016-Sep-29 19:50 284 2 gusting 4 26.1
2016-Sep-29 19:43 205 0 gusting 3 26.1
2016-Sep-29 19:39 265 1 gusting 4 26.1
2016-Sep-29 19:33 140 0 gusting 3 26.1
2016-Sep-29 19:29 227 0 gusting 4 26.7
2016-Sep-29 19:23 233 1 gusting 4 26.7
2016-Sep-29 19:19 250 26.7
2016-Sep-29 19:13 254 0 gusting 5 26.7
2016-Sep-29 19:09 292 4 gusting 4 27.2
2016-Sep-29 19:03 285 0 gusting 6 27.2
2016-Sep-29 19:00 295 3 gusting 3 27.2
2016-Sep-29 18:53 323 0 gusting 6 27.2
2016-Sep-29 18:49 216 0 gusting 6 27.8
2016-Sep-29 18:45 191 0 gusting 6 27.8
2016-Sep-29 18:39 045 28.9
2016-Sep-29 18:35 247 0 gusting 3 30.0
2016-Sep-29 18:28 130 0 gusting 2 30.6
2016-Sep-29 18:24 129 0 gusting 2 30.6
2016-Sep-29 18:18 078 31.1
2016-Sep-29 18:14 282 31.1
2016-Sep-29 18:08 326 1 gusting 1 31.7
2016-Sep-29 18:04 277 32.2
2016-Sep-29 17:58 246 32.2
2016-Sep-29 17:54 260 32.8
2016-Sep-29 17:48 310 0 gusting 2 32.8
2016-Sep-29 17:44 285 1 gusting 1 33.3
2016-Sep-29 17:38 306 0 gusting 1 33.3
2016-Sep-29 17:34 262 33.9
2016-Sep-29 17:28 267 33.9
2016-Sep-29 17:24 261 33.9
2016-Sep-29 17:20 217 33.9
2016-Sep-29 17:14 112 34.4
2016-Sep-29 17:09 275 34.4
2016-Sep-29 17:03 059 34.4
2016-Sep-29 16:59 097 0 gusting 3 33.9
2016-Sep-29 16:53 109 0 gusting 3 33.9
2016-Sep-29 16:49 047 1 gusting 4 33.9
2016-Sep-29 16:43 327 0 gusting 5 33.9
2016-Sep-29 16:37 337 2 gusting 6 33.3
2016-Sep-29 16:33 341 4 gusting 3 33.9
2016-Sep-29 16:29 004 1 gusting 4 34.4
2016-Sep-29 16:23 358 2 gusting 4 33.9
2016-Sep-29 16:19 358 1 gusting 3 33.9
2016-Sep-29 16:13 059 1 gusting 7 33.9
2016-Sep-29 16:09 115 5 gusting 6 33.9
2016-Sep-29 16:05 087 4 gusting 7 33.9
2016-Sep-29 15:59 289 1 gusting 6 35.0
2016-Sep-29 15:54 142 35.6
2016-Sep-29 15:48 112 36.1
2016-Sep-29 15:44 091 2 gusting 6 36.1
2016-Sep-29 15:38 278 36.1
2016-Sep-29 15:34 060 36.1
2016-Sep-29 15:28 165 36.1
2016-Sep-29 15:22 087 1 gusting 5 36.1
2016-Sep-29 15:18 011 0 gusting 6 36.1
2016-Sep-29 15:14 160 1 gusting 3 36.1
2016-Sep-29 15:08 132 0 gusting 3 36.1
2016-Sep-29 15:04 165 1 gusting 6 35.0
2016-Sep-29 14:58 091 5 gusting 10 33.9
2016-Sep-29 14:54 098 3 gusting 7 33.3
2016-Sep-29 14:50 081 4 gusting 6 33.9
2016-Sep-29 14:44 278 3 gusting 7 33.9
2016-Sep-29 14:39 289 2 gusting 8 33.3
2016-Sep-29 14:33 303 3 gusting 6 34.4
2016-Sep-29 14:29 310 0 gusting 5 35.0
2016-Sep-29 14:23 149 0 gusting 5 34.4
2016-Sep-29 14:19 158 34.4
2016-Sep-29 14:13 112 3 gusting 7 33.9
2016-Sep-29 14:07 066 2 gusting 8 33.9
2016-Sep-29 14:03 102 34.4
2016-Sep-29 13:59 270 0 gusting 4 34.4
2016-Sep-29 13:53 046 1 gusting 5 33.3
2016-Sep-29 13:49 120 3 gusting 6 33.3
2016-Sep-29 13:43 147 1 gusting 4 33.9
2016-Sep-29 13:39 232 33.9
2016-Sep-29 13:35 101 0 gusting 6 32.8
2016-Sep-29 13:29 143 4 gusting 6 33.3
2016-Sep-29 13:25 151 2 gusting 7 32.8
2016-Sep-29 13:18 098 3 gusting 5 32.8
2016-Sep-29 13:14 142 3 gusting 6 32.8
2016-Sep-29 13:08 146 31.1
2016-Sep-29 13:04 067 3 gusting 9 30.6
2016-Sep-29 12:58 073 0 gusting 10 31.1
2016-Sep-29 12:54 056 5 gusting 8 31.7
2016-Sep-29 12:48 150 2 gusting 6 32.2
2016-Sep-29 12:44 160 4 gusting 6 32.2
2016-Sep-29 12:38 119 2 gusting 7 31.1
2016-Sep-29 12:34 108 6 gusting 8 31.7
2016-Sep-29 12:28 037 32.2
2016-Sep-29 12:22 085 3 gusting 6 32.8
2016-Sep-29 12:20 142 6 gusting 6 32.2
2016-Sep-29 12:14 088 0 gusting 9 31.7
2016-Sep-29 12:10 109 5 gusting 6 32.2
2016-Sep-29 12:04 116 5 gusting 6 31.1
2016-Sep-29 11:59 156 2 gusting 8 30.6
2016-Sep-29 11:53 075 4 gusting 5 30.0
2016-Sep-29 11:49 160 2 gusting 8 29.4
2016-Sep-29 11:43 097 4 gusting 8 28.9
2016-Sep-29 11:39 104 1 gusting 5 29.4
2016-Sep-29 11:33 302 1 gusting 9 28.9
2016-Sep-29 11:29 077 5 gusting 9 28.9
2016-Sep-29 11:23 082 3 gusting 7 28.9
2016-Sep-29 11:19 136 2 gusting 9 29.4
2016-Sep-29 11:13 119 7 gusting 10 28.3
2016-Sep-29 11:09 154 28.3
2016-Sep-29 11:05 156 5 gusting 6 28.3
2016-Sep-29 10:57 073 4 gusting 8 28.3
2016-Sep-29 10:55 029 0 gusting 13 27.8
2016-Sep-29 10:49 082 2 gusting 9 27.8
2016-Sep-29 10:44 052 3 gusting 7 27.2
2016-Sep-29 10:38 095 0 gusting 10 26.7
2016-Sep-29 10:34 125 2 gusting 11 26.7
2016-Sep-29 10:28 104 6 gusting 8 26.7
2016-Sep-29 10:24 151 2 gusting 8 26.7
2016-Sep-29 10:18 142 4 gusting 9 26.1
2016-Sep-29 10:12 099 3 gusting 13 26.1
2016-Sep-29 10:08 011 3 gusting 8 25.6
2016-Sep-29 10:04 042 2 gusting 11 25.6
2016-Sep-29 09:58 108 1 gusting 13 25.0
2016-Sep-29 09:54 092 4 gusting 11 25.0
2016-Sep-29 09:48 068 3 gusting 11 24.4
2016-Sep-29 09:44 126 6 gusting 10 24.4
2016-Sep-29 09:40 081 8 gusting 14 24.4
2016-Sep-29 09:32 111 6 gusting 15 24.4
2016-Sep-29 09:29 127 8 gusting 15 23.9
2016-Sep-29 09:23 077 13 gusting 10 23.9
2016-Sep-29 09:19 071 6 gusting 9 23.9
2016-Sep-29 09:13 106 4 gusting 12 23.9
2016-Sep-29 09:09 115 5 gusting 13 23.3
2016-Sep-29 09:03 137 3 gusting 14 23.3
2016-Sep-29 08:59 135 7 gusting 12 23.3
2016-Sep-29 08:53 090 7 gusting 16 22.8
2016-Sep-29 08:49 085 6 gusting 12 22.8
2016-Sep-29 08:43 109 6 gusting 11 22.8
2016-Sep-29 08:39 073 3 gusting 13 22.8
2016-Sep-29 08:33 088 4 gusting 13 22.2
2016-Sep-29 08:29 164 6 gusting 13 22.2
2016-Sep-29 08:25 102 6 gusting 12 22.2
2016-Sep-29 08:19 112 4 gusting 14 22.2
2016-Sep-29 08:15 059 6 gusting 13 21.7
2016-Sep-29 08:08 118 7 gusting 13 21.7
2016-Sep-29 08:04 088 6 gusting 9 21.7
2016-Sep-29 07:58 108 6 gusting 13 21.7
2016-Sep-29 07:54 094 2 gusting 10 21.7
2016-Sep-29 07:48 106 6 gusting 13 21.1
2016-Sep-29 07:44 151 5 gusting 10 21.1
2016-Sep-29 07:38 139 7 gusting 11 21.1
2016-Sep-29 07:34 116 5 gusting 13 21.1
2016-Sep-29 07:28 109 4 gusting 10 21.1
2016-Sep-29 07:24 122 5 gusting 10 21.1
2016-Sep-29 07:18 153 4 gusting 10 21.1
2016-Sep-29 07:14 118 6 gusting 11 20.6
2016-Sep-29 07:10 082 6 gusting 13 20.6
2016-Sep-29 07:04 082 2 gusting 11 20.6
2016-Sep-29 07:00 112 6 gusting 10 20.6
2016-Sep-29 06:53 063 5 gusting 10 20.0
2016-Sep-29 06:49 099 5 gusting 12 20.0
2016-Sep-29 06:43 112 4 gusting 12 20.0
2016-Sep-29 06:39 085 3 gusting 10 19.4
2016-Sep-29 06:33 120 4 gusting 8 19.4
2016-Sep-29 06:29 109 6 gusting 9 19.4
2016-Sep-29 06:23 098 6 gusting 10 20.0
2016-Sep-29 06:19 105 6 gusting 9 20.0
2016-Sep-29 06:13 099 4 gusting 10 20.0
2016-Sep-29 06:09 112 6 gusting 12 20.0
2016-Sep-29 06:03 120 6 gusting 9 20.0
2016-Sep-29 05:59 129 4 gusting 9 20.0
2016-Sep-29 05:55 151 4 gusting 11 20.0
2016-Sep-29 05:49 122 5 gusting 12 20.0
2016-Sep-29 05:44 108 7 gusting 10 20.0
2016-Sep-29 05:38 113 7 gusting 12 20.0
2016-Sep-29 05:34 064 10 gusting 14 20.0
2016-Sep-29 05:28 099 7 gusting 15 20.6
2016-Sep-29 05:24 080 6 gusting 12 20.6
2016-Sep-29 05:18 174 5 gusting 13 20.6
2016-Sep-29 05:15 018 0 gusting 6 21.7
2016-Sep-29 05:08 116 7 gusting 13 20.6
2016-Sep-29 05:04 095 6 gusting 13 20.6
2016-Sep-29 04:58 082 6 gusting 11 20.6
2016-Sep-29 04:54 116 5 gusting 10 20.6
2016-Sep-29 04:48 095 7 gusting 10 20.6
2016-Sep-29 04:44 098 7 gusting 9 20.6
2016-Sep-29 04:38 115 6 gusting 10 20.6
2016-Sep-29 04:34 149 5 gusting 12 20.6
2016-Sep-29 04:29 080 6 gusting 10 21.1
2016-Sep-29 04:23 126 5 gusting 6 21.1
2016-Sep-29 04:19 142 3 gusting 6 21.1
2016-Sep-29 04:13 132 5 gusting 6 21.1
2016-Sep-29 04:09 091 4 gusting 6 21.1
2016-Sep-29 04:03 133 1 gusting 6 21.7
2016-Sep-29 03:59 147 4 gusting 6 21.7
2016-Sep-29 03:53 102 1 gusting 6 21.7
2016-Sep-29 03:49 018 0 gusting 6 21.7
2016-Sep-29 03:43 102 4 gusting 9 21.7
2016-Sep-29 03:39 118 3 gusting 7 21.7
2016-Sep-29 03:33 091 5 gusting 6 21.7
2016-Sep-29 03:29 129 3 gusting 6 22.2
2016-Sep-29 03:25 125 3 gusting 11 22.2
2016-Sep-29 03:19 118 5 gusting 7 22.2
2016-Sep-29 03:15 139 6 gusting 5 22.2
2016-Sep-29 03:08 113 3 gusting 7 22.2
2016-Sep-29 03:04 132 2 gusting 6 22.2
2016-Sep-29 02:58 133 2 gusting 7 22.2
2016-Sep-29 02:54 139 3 gusting 7 22.2
2016-Sep-29 02:48 063 2 gusting 9 22.2
2016-Sep-29 02:44 099 5 gusting 7 22.8
2016-Sep-29 02:38 123 6 gusting 7 22.8
2016-Sep-29 02:34 139 3 gusting 8 22.8
2016-Sep-29 02:28 130 6 gusting 9 22.8
2016-Sep-29 02:24 119 4 gusting 9 22.8
2016-Sep-29 02:18 097 4 gusting 11 22.8
2016-Sep-29 02:14 087 6 gusting 10 22.8
2016-Sep-29 02:10 129 4 gusting 8 22.8
2016-Sep-29 02:04 077 5 gusting 7 22.8
2016-Sep-29 02:00 080 5 gusting 8 22.8
2016-Sep-29 01:53 106 3 gusting 7 22.8
2016-Sep-29 01:49 126 4 gusting 7 22.8
2016-Sep-29 01:43 122 5 gusting 10 23.3
2016-Sep-29 01:39 105 6 gusting 10 23.3
2016-Sep-29 01:33 102 3 gusting 9 23.3
2016-Sep-29 01:29 082 6 gusting 13 23.3
2016-Sep-29 01:23 126 6 gusting 8 23.3
2016-Sep-29 01:17 132 5 gusting 8 23.3
2016-Sep-29 01:13 144 5 gusting 10 23.3
2016-Sep-29 01:09 087 4 gusting 11 23.3
2016-Sep-29 01:03 109 6 gusting 13 23.3
2016-Sep-29 00:59 105 4 gusting 8 23.3
2016-Sep-29 00:55 078 5 gusting 12 23.3
2016-Sep-29 00:49 106 6 gusting 8 23.3
2016-Sep-29 00:45 102 6 gusting 11 23.3
2016-Sep-29 00:39 104 5 gusting 8 23.9
2016-Sep-29 00:34 144 6 gusting 9 23.9
2016-Sep-29 00:28 091 7 gusting 9 23.9
2016-Sep-29 00:24 149 4 gusting 9 23.9
2016-Sep-29 00:18 123 6 gusting 11 23.9
2016-Sep-29 00:14 130 6 gusting 8 23.9
2016-Sep-29 00:08 135 6 gusting 9 23.9
2016-Sep-29 00:04 097 5 gusting 10 24.4
2016-Sep-28 23:58 118 7 gusting 13 24.4
2016-Sep-28 23:54 078 11 gusting 14 24.4
2016-Sep-28 23:48 125 5 gusting 15 24.4
2016-Sep-28 23:44 102 8 gusting 9 24.4
2016-Sep-28 23:40 143 6 gusting 9 24.4
2016-Sep-28 23:34 111 6 gusting 10 24.4
2016-Sep-28 23:30 136 7 gusting 8 24.4
2016-Sep-28 23:23 123 6 gusting 12 24.4
2016-Sep-28 23:19 129 5 gusting 11 25.0
2016-Sep-28 23:13 102 7 gusting 9 25.0
2016-Sep-28 23:09 123 6 gusting 10 25.0
2016-Sep-28 23:03 135 6 gusting 8 25.0
2016-Sep-28 22:59 109 6 gusting 10 25.0
2016-Sep-28 22:53 119 4 gusting 9 25.0
2016-Sep-28 22:49 082 5 gusting 12 25.0
2016-Sep-28 22:43 075 6 gusting 10 25.6
2016-Sep-28 22:39 087 3 gusting 12 25.6
2016-Sep-28 22:33 129 5 gusting 12 25.6
2016-Sep-28 22:29 084 9 gusting 10 25.6
2016-Sep-28 22:23 109 6 gusting 10 25.6
2016-Sep-28 22:19 133 3 gusting 12 25.6
2016-Sep-28 22:15 115 4 gusting 10 25.6
2016-Sep-28 22:09 080 5 gusting 11 26.1
2016-Sep-28 22:04 108 6 gusting 11 26.1
2016-Sep-28 21:58 119 5 gusting 11 26.1
2016-Sep-28 21:54 095 5 gusting 12 26.1
2016-Sep-28 21:48 104 8 gusting 12 26.1
2016-Sep-28 21:44 143 5 gusting 13 26.1
2016-Sep-28 21:38 084 10 gusting 13 26.7
2016-Sep-28 21:34 118 7 gusting 9 26.7
2016-Sep-28 21:28 109 7 gusting 12 26.7
2016-Sep-28 21:24 084 7 gusting 10 26.7
2016-Sep-28 21:18 095 6 gusting 10 26.7
2016-Sep-28 21:14 082 5 gusting 12 26.7
2016-Sep-28 21:08 122 6 gusting 9 26.7
2016-Sep-28 21:04 071 6 gusting 8 27.2
2016-Sep-28 21:00 091 4 gusting 8 27.2
2016-Sep-28 20:54 075 3 gusting 10 27.2
2016-Sep-28 20:50 137 4 gusting 6 27.2
2016-Sep-28 20:43 080 3 gusting 7 27.2
2016-Sep-28 20:39 106 6 gusting 6 27.2
2016-Sep-28 20:33 070 1 gusting 6 27.2
2016-Sep-28 20:29 045 4 gusting 6 27.8
2016-Sep-28 20:23 037 4 gusting 6 27.8
2016-Sep-28 20:19 046 1 gusting 6 27.8
2016-Sep-28 20:13 064 1 gusting 6 27.8
2016-Sep-28 20:09 098 3 gusting 5 28.3
2016-Sep-28 20:03 120 1 gusting 5 28.3
2016-Sep-28 19:59 125 2 gusting 5 28.3
2016-Sep-28 19:53 071 0 gusting 2 28.3
2016-Sep-28 19:49 254 28.9
2016-Sep-28 19:45 080 28.9
2016-Sep-28 19:39 061 28.9
2016-Sep-28 19:35 282 0 gusting 2 28.9
2016-Sep-28 19:28 258 29.4
2016-Sep-28 19:24 293 29.4
2016-Sep-28 19:18 262 0 gusting 3 29.4
2016-Sep-28 19:14 236 0 gusting 3 30.0
2016-Sep-28 19:08 300 30.0
2016-Sep-28 19:04 102 2 gusting 2 30.6
2016-Sep-28 18:58 267 0 gusting 1 30.6
2016-Sep-28 18:54 243 0 gusting 1 31.1
2016-Sep-28 18:48 219 31.1
2016-Sep-28 18:44 250 31.1
2016-Sep-28 18:38 251 0 gusting 1 31.7
2016-Sep-28 18:34 233 0 gusting 3 31.7
2016-Sep-28 18:30 232 1 gusting 4 31.7
2016-Sep-28 18:24 261 32.2
2016-Sep-28 18:20 230 0 gusting 2 32.8
2016-Sep-28 18:13 194 32.8
2016-Sep-28 18:09 267 0 gusting 3 32.8
2016-Sep-28 18:03 233 3 gusting 4 33.3
2016-Sep-28 17:59 059 1 gusting 3 33.3
2016-Sep-28 17:53 202 33.3
2016-Sep-28 17:47 192 0 gusting 4 33.9
2016-Sep-28 17:43 126 3 gusting 4 33.9
2016-Sep-28 17:39 142 1 gusting 6 33.9
2016-Sep-28 17:33 202 0 gusting 6 33.9
2016-Sep-28 17:29 067 2 gusting 6 33.9
2016-Sep-28 17:23 189 1 gusting 8 33.9
2016-Sep-28 17:19 291 0 gusting 6 34.4
2016-Sep-28 17:15 135 1 gusting 8 34.4
2016-Sep-28 17:09 322 0 gusting 6 35.0
2016-Sep-28 17:05 222 2 gusting 8 35.0
2016-Sep-28 16:58 088 2 gusting 6 35.0
2016-Sep-28 16:54 350 2 gusting 3 35.0
2016-Sep-28 16:48 122 0 gusting 6 35.0
2016-Sep-28 16:44 084 5 gusting 3 35.0
2016-Sep-28 16:38 123 0 gusting 8 34.4
2016-Sep-28 16:32 081 5 gusting 8 34.4
2016-Sep-28 16:28 240 0 gusting 7 34.4
2016-Sep-28 16:24 087 6 gusting 7 34.4
2016-Sep-28 16:18 036 4 gusting 7 35.0
2016-Sep-28 16:14 068 6 gusting 11 35.0
2016-Sep-28 16:08 178 2 gusting 6 36.1
2016-Sep-28 16:04 064 2 gusting 6 35.6
2016-Sep-28 16:00 191 1 gusting 7 35.6
2016-Sep-28 15:54 063 6 gusting 6 35.6
2016-Sep-28 15:50 023 2 gusting 4 36.7
2016-Sep-28 15:43 227 3 gusting 10 36.1
2016-Sep-28 15:39 066 0 gusting 9 35.6
2016-Sep-28 15:33 060 5 gusting 8 35.6
2016-Sep-28 15:29 056 2 gusting 11 35.6
2016-Sep-28 15:23 066 2 gusting 6 36.1
2016-Sep-28 15:19 248 3 gusting 9 35.6
2016-Sep-28 15:13 115 6 gusting 9 35.0
2016-Sep-28 15:09 177 0 gusting 10 35.6
2016-Sep-28 15:03 102 1 gusting 8 36.1
2016-Sep-28 14:59 303 3 gusting 9 36.1
2016-Sep-28 14:53 358 4 gusting 9 36.1
2016-Sep-28 14:49 257 3 gusting 7 36.1
2016-Sep-28 14:45 098 3 gusting 11 35.6
2016-Sep-28 14:39 071 2 gusting 9 34.4
2016-Sep-28 14:35 146 6 gusting 10 35.0
2016-Sep-28 14:28 271 1 gusting 12 34.4
2016-Sep-28 14:24 085 2 gusting 11 35.6
2016-Sep-28 14:18 067 6 gusting 6 35.6
2016-Sep-28 14:14 116 3 gusting 7 35.6
2016-Sep-28 14:08 108 5 gusting 13 34.4
2016-Sep-28 14:04 022 10 gusting 11 35.0
2016-Sep-28 13:58 043 4 gusting 9 35.0
2016-Sep-28 13:54 123 4 gusting 10 35.0
2016-Sep-28 13:48 098 6 gusting 8 34.4
2016-Sep-28 13:44 028 2 gusting 7 34.4
2016-Sep-28 13:38 081 2 gusting 9 34.4
2016-Sep-28 13:34 140 6 gusting 12 34.4
2016-Sep-28 13:29 187 0 gusting 11 33.9
2016-Sep-28 13:24 071 6 gusting 10 33.9
2016-Sep-28 13:20 288 1 gusting 10 33.9
2016-Sep-28 13:11 113 7 gusting 6 34.4
2016-Sep-28 13:09 324 1 gusting 6 33.9
2016-Sep-28 13:03 135 4 gusting 11 33.9
2016-Sep-28 12:59 042 3 gusting 6 33.3
2016-Sep-28 12:51 284 1 gusting 12 33.3
2016-Sep-28 12:49 077 0 gusting 12 33.3
2016-Sep-28 12:43 053 3 gusting 8 33.3
2016-Sep-28 12:39 237 32.8
2016-Sep-28 12:33 112 2 gusting 7 32.8
2016-Sep-28 12:29 015 1 gusting 10 32.8
2016-Sep-28 12:23 139 4 gusting 6 32.8
2016-Sep-28 12:19 265 0 gusting 11 32.8
2016-Sep-28 12:13 135 5 gusting 7 32.8
2016-Sep-28 12:09 216 2 gusting 11 31.7
2016-Sep-28 12:05 073 5 gusting 10 31.7
2016-Sep-28 11:59 033 1 gusting 12 30.6
2016-Sep-28 11:54 040 7 gusting 13 30.6
2016-Sep-28 11:48 129 6 gusting 8 31.1
2016-Sep-28 11:44 104 6 gusting 10 30.6
2016-Sep-28 11:38 106 3 gusting 9 30.6
2016-Sep-28 11:34 108 3 gusting 8 30.6
2016-Sep-28 11:28 108 6 gusting 8 30.6
2016-Sep-28 11:24 064 5 gusting 7 30.6
2016-Sep-28 11:18 277 1 gusting 11 30.0
2016-Sep-28 11:14 025 6 gusting 8 30.0
2016-Sep-28 11:08 299 1 gusting 12 28.9
2016-Sep-28 11:04 075 7 gusting 13 29.4
2016-Sep-28 10:58 115 2 gusting 13 28.9
2016-Sep-28 10:54 084 3 gusting 13 28.9
2016-Sep-28 10:50 078 6 gusting 15 28.3
2016-Sep-28 10:44 087 6 gusting 19 28.3
2016-Sep-28 10:39 046 6 gusting 16 28.3
2016-Sep-28 10:33 056 9 gusting 13 28.3
2016-Sep-28 10:29 120 7 gusting 11 28.3
2016-Sep-28 10:23 057 10 gusting 14 27.8
2016-Sep-28 10:19 075 3 gusting 16 28.3
2016-Sep-28 10:13 201 0 gusting 9 28.3
2016-Sep-28 10:09 070 3 gusting 13 27.8
2016-Sep-28 10:03 090 3 gusting 17 27.2
2016-Sep-28 09:59 064 4 gusting 12 27.2
2016-Sep-28 09:53 066 9 gusting 14 27.2
2016-Sep-28 09:49 075 11 gusting 13 26.7
2016-Sep-28 09:43 099 7 gusting 19 26.7
2016-Sep-28 09:39 130 15 gusting 17 26.1
2016-Sep-28 09:35 108 5 gusting 12 26.1
2016-Sep-28 09:29 028 6 gusting 12 26.1
2016-Sep-28 09:24 105 1 gusting 13 26.1
2016-Sep-28 09:18 084 6 gusting 15 25.6
2016-Sep-28 09:14 094 14 gusting 13 25.6
2016-Sep-28 09:08 084 7 gusting 13 25.6
2016-Sep-28 09:04 104 12 gusting 12 25.0
2016-Sep-28 08:58 078 4 gusting 7 25.0
2016-Sep-28 08:54 232 1 gusting 8 25.0
2016-Sep-28 08:48 180 2 gusting 7 25.0
2016-Sep-28 08:44 126 1 gusting 10 24.4
2016-Sep-28 08:38 222 1 gusting 7 24.4
2016-Sep-28 08:34 154 3 gusting 7 24.4
2016-Sep-28 08:28 295 1 gusting 8 23.9
2016-Sep-28 08:24 016 2 gusting 15 23.9
2016-Sep-28 08:20 075 5 gusting 12 23.3
2016-Sep-28 08:14 059 6 gusting 12 23.3
2016-Sep-28 08:09 080 4 gusting 10 23.3
2016-Sep-28 08:03 056 3 gusting 11 23.3
2016-Sep-28 07:59 081 2 gusting 8 23.3
2016-Sep-28 07:53 075 6 gusting 13 22.8
2016-Sep-28 07:49 028 3 gusting 11 22.8
2016-Sep-28 07:43 098 6 gusting 7 22.8
2016-Sep-28 07:39 094 3 gusting 7 23.3
2016-Sep-28 07:33 126 4 gusting 7 22.8
2016-Sep-28 07:29 285 22.8
2016-Sep-28 07:23 075 4 gusting 7 22.8
2016-Sep-28 07:19 053 7 gusting 6 22.2
2016-Sep-28 07:13 087 3 gusting 9 21.7
2016-Sep-28 07:09 099 2 gusting 4 21.1
2016-Sep-28 07:05 136 1 gusting 4 21.1
2016-Sep-28 06:59 289 3 gusting 4 21.1
2016-Sep-28 06:54 230 20.6
2016-Sep-28 06:48 323 19.4
2016-Sep-28 06:44 040 18.9
2016-Sep-28 06:38 064 2 gusting 4 17.8
2016-Sep-28 06:34 344 0 gusting 3 17.8
2016-Sep-28 06:28 232 17.8
2016-Sep-28 06:24 337 17.8
2016-Sep-28 06:18 264 18.3
2016-Sep-28 06:14 247 18.3
2016-Sep-28 06:08 018 18.3
2016-Sep-28 06:04 303 1 gusting 3 18.3
2016-Sep-28 05:58 265 18.3
2016-Sep-28 05:54 216 18.3
2016-Sep-28 05:50 174 18.3
2016-Sep-28 05:44 354 3 gusting 2 18.3
2016-Sep-28 05:39 258 18.9
2016-Sep-28 05:33 241 18.9
2016-Sep-28 05:29 011 18.9
2016-Sep-28 05:23 347 18.9
2016-Sep-28 05:19 080 2 gusting 2 18.9
2016-Sep-28 05:13 112 18.9
2016-Sep-28 05:09 092 0 gusting 1 18.9
2016-Sep-28 05:03 150 18.9
2016-Sep-28 04:59 116 18.9
2016-Sep-28 04:53 116 18.9
2016-Sep-28 04:49 116 18.9
2016-Sep-28 04:43 116 18.9
2016-Sep-28 04:39 126 0 gusting 0 18.9
2016-Sep-28 04:35 090 18.9
2016-Sep-28 04:29 234 0 gusting 1 18.9
2016-Sep-28 04:24 192 18.9
2016-Sep-28 04:18 243 18.9
2016-Sep-28 04:14 282 18.9
2016-Sep-28 04:08 282 0 gusting 3 18.9
2016-Sep-28 04:04 275 2 gusting 3 18.9
2016-Sep-28 03:58 233 2 gusting 2 18.9
2016-Sep-28 03:54 265 18.9
2016-Sep-28 03:48 312 1 gusting 3 18.9
2016-Sep-28 03:44 247 1 gusting 3 18.9
2016-Sep-28 03:38 244 0 gusting 2 18.9
2016-Sep-28 03:34 262 0 gusting 2 18.9
2016-Sep-28 03:28 260 18.9
2016-Sep-28 03:24 299 18.9
2016-Sep-28 03:20 220 18.9
2016-Sep-28 03:14 185 18.9
2016-Sep-28 03:09 270 0 gusting 1 19.4
2016-Sep-28 03:03 261 0 gusting 1 19.4
2016-Sep-28 02:59 192 0 gusting 1 19.4
2016-Sep-28 02:53 232 19.4
2016-Sep-28 02:49 236 1 gusting 1 19.4
2016-Sep-28 02:43 233 19.4
2016-Sep-28 02:39 075 19.4
2016-Sep-28 02:33 195 19.4
2016-Sep-28 02:29 230 0 gusting 1 19.4
2016-Sep-28 02:23 262 0 gusting 1 19.4
2016-Sep-28 02:19 248 0 gusting 2 19.4
2016-Sep-28 02:13 215 19.4
2016-Sep-28 02:09 243 0 gusting 3 19.4
2016-Sep-28 02:05 227 0 gusting 1 19.4
2016-Sep-28 01:59 226 0 gusting 2 19.4
2016-Sep-28 01:54 150 19.4
2016-Sep-28 01:48 225 19.4
2016-Sep-28 01:44 066 19.4
2016-Sep-28 01:38 236 20.0
2016-Sep-28 01:34 206 0 gusting 1 20.0
2016-Sep-28 01:29 243 0 gusting 2 20.0
2016-Sep-28 01:24 288 20.0
2016-Sep-28 01:18 295 1 gusting 0 20.0
2016-Sep-28 01:14 068 20.0
2016-Sep-28 01:08 140 1 gusting 0 20.0
2016-Sep-28 01:04 120 20.0
2016-Sep-28 00:58 189 20.0
2016-Sep-28 00:54 267 20.6
2016-Sep-28 00:50 230 0 gusting 2 20.6
2016-Sep-28 00:44 302 0 gusting 2 20.6
2016-Sep-28 00:39 275 0 gusting 2 20.6
2016-Sep-28 00:33 271 0 gusting 1 20.6
2016-Sep-28 00:29 227 20.6
2016-Sep-28 00:23 317 20.6
2016-Sep-28 00:19 306 21.1
2016-Sep-28 00:13 201 21.1
2016-Sep-28 00:09 177 21.1
2016-Sep-28 00:03 208 21.1
2016-Sep-27 23:59 216 21.1
2016-Sep-27 23:53 246 0 gusting 2 21.1
2016-Sep-27 23:49 198 21.1
2016-Sep-27 23:43 229 1 gusting 2 21.1
2016-Sep-27 23:39 232 21.7
2016-Sep-27 23:35 167 21.1
2016-Sep-27 23:29 257 21.7
2016-Sep-27 23:25 225 0 gusting 2 21.7
2016-Sep-27 23:18 208 0 gusting 2 21.7
2016-Sep-27 23:14 258 21.7
2016-Sep-27 23:09 255 0 gusting 3 21.7
2016-Sep-27 23:04 213 2 gusting 2 21.7
2016-Sep-27 22:58 253 1 gusting 2 21.7
2016-Sep-27 22:54 241 1 gusting 3 22.2
2016-Sep-27 22:48 293 0 gusting 2 22.2
2016-Sep-27 22:44 255 2 gusting 2 22.2
2016-Sep-27 22:38 292 1 gusting 2 22.2
2016-Sep-27 22:34 226 0 gusting 3 22.2
2016-Sep-27 22:30 220 0 gusting 2 22.2
2016-Sep-27 22:24 285 0 gusting 2 22.2
2016-Sep-27 22:20 278 2 gusting 2 22.2
2016-Sep-27 22:13 282 22.8
2016-Sep-27 22:09 264 1 gusting 2 22.8
2016-Sep-27 22:03 233 1 gusting 2 22.8
2016-Sep-27 21:59 220 1 gusting 1 22.8
2016-Sep-27 21:53 213 0 gusting 2 22.8
2016-Sep-27 21:49 213 1 gusting 1 22.8
2016-Sep-27 21:43 300 22.8
2016-Sep-27 21:39 233 0 gusting 2 23.3
2016-Sep-27 21:33 248 1 gusting 3 23.3
2016-Sep-27 21:29 255 0 gusting 4 23.3
2016-Sep-27 21:23 341 3 gusting 4 23.3
2016-Sep-27 21:19 216 2 gusting 5 23.3
2016-Sep-27 21:13 344 3 gusting 6 23.3
2016-Sep-27 21:09 260 0 gusting 6 23.3
2016-Sep-27 21:05 229 2 gusting 5 23.3
2016-Sep-27 20:59 345 4 gusting 5 23.9
2016-Sep-27 20:54 275 3 gusting 6 23.9
2016-Sep-27 20:48 274 2 gusting 6 23.9
2016-Sep-27 20:44 175 0 gusting 5 23.9
2016-Sep-27 20:38 289 0 gusting 6 23.9
2016-Sep-27 20:34 223 1 gusting 6 23.9
2016-Sep-27 20:28 319 4 gusting 6 24.4
2016-Sep-27 20:24 323 3 gusting 6 24.4
2016-Sep-27 20:18 113 1 gusting 4 24.4
2016-Sep-27 20:14 313 2 gusting 5 24.4
2016-Sep-27 20:08 307 4 gusting 5 24.4
2016-Sep-27 20:04 004 1 gusting 6 24.4